Time,TemperatureF,DewpointF,PressureIn,WindDirection,WindDirectionDegrees,WindSpeedMPH,WindSpeedGustMPH,Humidity,HourlyPrecipIn,Conditions,Clouds,dailyrainin,SoftwareType,DateUTC
2013-04-03 00:00:00,37.2,15.0,30.03,WNW,283,12.2,28.1,40,0.00,,---,0.00,VWS V14.01,2013-04-03 04:00:00,
2013-04-03 00:01:00,36.3,15.7,30.05,NW,312,5.9,10.5,42,0.00,,---,0.00,VWS V14.01,2013-04-03 04:01:00,
2013-04-03 00:05:00,36.6,14.8,30.04,North,359,7.0,8.6,40,0.00,,---,0.00,VWS V14.01,2013-04-03 04:05:00,
2013-04-03 00:10:00,37.0,15.3,30.04,WNW,294,1.6,9.6,41,0.00,,---,0.00,VWS V14.01,2013-04-03 04:10:00,
2013-04-03 00:11:00,36.0,15.6,30.05,NNW,345,5.0,73.2,43,0.00,,---,0.00,VWS V14.01,2013-04-03 04:11:00,
2013-04-03 00:12:00,36.0,15.6,30.05,NW,322,9.1,73.2,43,0.00,,---,0.00,VWS V14.01,2013-04-03 04:12:00,
2013-04-03 00:13:00,36.0,15.5,30.05,ESE,118,6.8,73.2,43,0.00,,---,0.00,VWS V14.01,2013-04-03 04:13:00,
2013-04-03 00:15:00,36.8,15.1,30.04,NNW,338,7.5,10.5,41,0.00,,---,0.00,VWS V14.01,2013-04-03 04:15:00,
2013-04-03 00:20:00,37.3,15.8,30.04,NNW,345,6.5,9.4,41,0.00,,---,0.00,VWS V14.01,2013-04-03 04:20:00,
2013-04-03 00:25:00,36.4,14.9,30.04,South,172,9.1,10.3,41,0.00,,---,0.00,VWS V14.01,2013-04-03 04:25:00,
2013-04-03 00:30:00,36.5,15.3,30.04,North,352,6.0,8.0,41,0.00,,---,0.00,VWS V14.01,2013-04-03 04:30:00,
2013-04-03 00:35:00,37.0,15.8,30.04,North,353,5.3,10.4,42,0.00,,---,0.00,VWS V14.01,2013-04-03 04:35:00,
2013-04-03 00:40:00,36.1,15.1,30.04,NW,308,5.0,9.8,42,0.00,,---,0.00,VWS V14.01,2013-04-03 04:40:00,
2013-04-03 00:45:00,36.7,15.5,30.04,West,263,8.9,15.8,42,0.00,,---,0.00,VWS V14.01,2013-04-03 04:45:00,
2013-04-03 00:50:00,36.4,15.6,30.04,NW,305,5.7,8.1,42,0.00,,---,0.00,VWS V14.01,2013-04-03 04:50:00,
2013-04-03 00:53:00,32.2,13.8,30.08,NW,318,3.4,73.2,46,0.00,,---,0.00,VWS V14.01,2013-04-03 04:53:00,
2013-04-03 00:55:00,36.9,16.2,30.04,North,1,4.7,6.5,42,0.00,,---,0.00,VWS V14.01,2013-04-03 04:55:00,
2013-04-03 01:00:00,36.4,15.7,30.04,NNE,31,3.1,10.5,42,0.00,,---,0.00,VWS V14.01,2013-04-03 05:00:00,
2013-04-03 01:02:00,34.9,14.9,30.05,NW,307,7.9,73.2,43,0.00,,---,0.00,VWS V14.01,2013-04-03 05:02:00,
2013-04-03 01:03:00,34.9,14.9,30.05,NW,322,5.2,73.2,44,0.00,,---,0.00,VWS V14.01,2013-04-03 05:03:00,
2013-04-03 01:04:00,35.6,15.6,30.05,NNW,345,9.7,73.2,44,0.00,,---,0.00,VWS V14.01,2013-04-03 05:04:00,
2013-04-03 01:05:00,36.3,15.5,30.05,North,4,6.6,73.2,42,0.00,,---,0.00,VWS V14.01,2013-04-03 05:05:00,
2013-04-03 01:10:00,36.0,15.5,30.05,NNW,340,8.0,73.2,43,0.00,,---,0.00,VWS V14.01,2013-04-03 05:10:00,
2013-04-03 01:15:00,36.2,15.7,30.05,NW,326,7.8,73.2,43,0.00,,---,0.00,VWS V14.01,2013-04-03 05:15:00,
2013-04-03 01:20:00,35.8,15.6,30.04,North,1,4.2,73.2,43,0.00,,---,0.00,VWS V14.01,2013-04-03 05:20:00,
2013-04-03 01:25:00,35.9,15.7,30.05,NNW,329,8.1,73.2,43,0.00,,---,0.00,VWS V14.01,2013-04-03 05:25:00,
2013-04-03 01:30:00,35.9,15.7,30.05,NNW,342,5.5,73.2,43,0.00,,---,0.00,VWS V14.01,2013-04-03 05:30:00,
2013-04-03 01:35:00,35.9,15.8,30.05,NNE,21,7.1,73.2,43,0.00,,---,0.00,VWS V14.01,2013-04-03 05:35:00,
2013-04-03 01:40:00,35.4,15.5,30.05,NNW,336,6.8,73.2,44,0.00,,---,0.00,VWS V14.01,2013-04-03 05:40:00,
2013-04-03 01:45:00,35.3,15.4,30.05,North,359,1.5,73.2,44,0.00,,---,0.00,VWS V14.01,2013-04-03 05:45:00,
2013-04-03 01:50:00,35.4,15.8,30.05,NNW,330,5.5,73.2,44,0.00,,---,0.00,VWS V14.01,2013-04-03 05:50:00,
2013-04-03 01:55:00,35.4,15.5,30.05,NW,325,9.0,73.2,44,0.00,,---,0.00,VWS V14.01,2013-04-03 05:55:00,
2013-04-03 02:00:00,35.7,15.5,30.05,NW,318,7.6,73.2,43,0.00,,---,0.00,VWS V14.01,2013-04-03 06:00:00,
2013-04-03 02:05:00,35.4,15.3,30.05,NNW,336,6.4,73.2,43,0.00,,---,0.00,VWS V14.01,2013-04-03 06:05:00,
2013-04-03 02:10:00,34.9,14.9,30.05,NNW,338,3.4,73.2,43,0.00,,---,0.00,VWS V14.01,2013-04-03 06:10:00,
2013-04-03 02:15:00,34.8,14.3,30.05,NNW,339,4.8,73.2,42,0.00,,---,0.00,VWS V14.01,2013-04-03 06:15:00,
2013-04-03 02:20:00,34.6,13.8,30.05,NNE,17,13.5,73.2,42,0.00,,---,0.00,VWS V14.01,2013-04-03 06:20:00,
2013-04-03 02:25:00,34.5,13.6,30.05,NNE,30,6.9,73.2,42,0.00,,---,0.00,VWS V14.01,2013-04-03 06:25:00,
2013-04-03 02:30:00,34.6,13.7,30.05,NW,305,6.7,73.2,42,0.00,,---,0.00,VWS V14.01,2013-04-03 06:30:00,
2013-04-03 02:35:00,34.8,13.9,30.05,NNW,347,6.5,73.2,42,0.00,,---,0.00,VWS V14.01,2013-04-03 06:35:00,
2013-04-03 02:40:00,34.6,13.6,30.05,North,359,8.4,73.2,41,0.00,,---,0.00,VWS V14.01,2013-04-03 06:40:00,
2013-04-03 02:45:00,34.3,13.3,30.05,NNE,21,5.5,73.2,41,0.00,,---,0.00,VWS V14.01,2013-04-03 06:45:00,
2013-04-03 02:50:00,34.4,13.7,30.05,NNW,332,8.1,73.2,42,0.00,,---,0.00,VWS V14.01,2013-04-03 06:50:00,
2013-04-03 02:55:00,34.6,14.1,30.05,NNW,329,5.5,73.2,42,0.00,,---,0.00,VWS V14.01,2013-04-03 06:55:00,
2013-04-03 03:00:00,34.2,14.1,30.05,NNW,346,6.0,73.2,43,0.00,,---,0.00,VWS V14.01,2013-04-03 07:00:00,
2013-04-03 03:05:00,34.0,13.9,30.05,West,269,7.0,73.2,43,0.00,,---,0.00,VWS V14.01,2013-04-03 07:05:00,
2013-04-03 03:10:00,34.2,13.9,30.05,North,3,3.0,73.2,43,0.00,,---,0.00,VWS V14.01,2013-04-03 07:10:00,
2013-04-03 03:15:00,33.7,13.4,30.05,NNE,24,5.2,73.2,43,0.00,,---,0.00,VWS V14.01,2013-04-03 07:15:00,
2013-04-03 03:20:00,34.1,13.8,30.05,NE,48,4.3,73.2,43,0.00,,---,0.00,VWS V14.01,2013-04-03 07:20:00,
2013-04-03 03:25:00,33.7,13.5,30.05,NNW,335,7.1,73.2,43,0.00,,---,0.00,VWS V14.01,2013-04-03 07:25:00,
2013-04-03 03:30:00,33.3,13.4,30.05,NNW,330,5.5,73.2,43,66.98,,---,0.00,VWS V14.01,2013-04-03 07:30:00,
2013-04-03 03:35:00,33.7,14.1,30.05,NW,312,5.5,73.2,44,0.00,,---,0.00,VWS V14.01,2013-04-03 07:35:00,
2013-04-03 03:40:00,33.0,13.8,30.05,NNW,347,5.8,73.2,45,0.00,,---,0.00,VWS V14.01,2013-04-03 07:40:00,
2013-04-03 03:45:00,32.6,13.7,30.05,West,276,3.5,73.2,45,0.00,,---,0.00,VWS V14.01,2013-04-03 07:45:00,
2013-04-03 03:50:00,32.7,13.9,30.05,NNW,343,5.7,73.2,45,0.00,,---,0.00,VWS V14.01,2013-04-03 07:50:00,
2013-04-03 03:55:00,33.0,14.1,30.05,NW,326,7.4,73.2,45,0.00,,---,0.00,VWS V14.01,2013-04-03 07:55:00,
2013-04-03 04:00:00,32.6,13.5,30.05,South,179,1.7,73.2,45,0.00,,---,0.00,VWS V14.01,2013-04-03 08:00:00,
2013-04-03 04:05:00,32.4,13.4,30.05,WNW,302,8.1,73.2,45,0.00,,---,0.00,VWS V14.01,2013-04-03 08:05:00,
2013-04-03 04:10:00,32.9,13.9,30.05,WNW,297,4.0,73.2,45,0.00,,---,0.00,VWS V14.01,2013-04-03 08:10:00,
2013-04-03 04:15:00,33.3,14.3,30.06,NW,315,5.0,73.2,45,0.00,,---,0.00,VWS V14.01,2013-04-03 08:15:00,
2013-04-03 04:20:00,32.8,13.6,30.06,NW,311,2.5,73.2,44,0.00,,---,0.00,VWS V14.01,2013-04-03 08:20:00,
2013-04-03 04:25:00,32.9,13.9,30.06,NW,312,4.8,73.2,45,0.00,,---,0.00,VWS V14.01,2013-04-03 08:25:00,
2013-04-03 04:30:00,32.2,13.3,30.06,NW,308,7.4,73.2,45,0.00,,---,0.00,VWS V14.01,2013-04-03 08:30:00,
2013-04-03 04:35:00,32.5,13.6,30.06,NW,312,5.3,73.2,45,0.00,,---,0.00,VWS V14.01,2013-04-03 08:35:00,
2013-04-03 04:40:00,32.2,13.3,30.06,WNW,292,6.0,73.2,45,0.00,,---,0.00,VWS V14.01,2013-04-03 08:40:00,
2013-04-03 04:45:00,32.7,13.8,30.06,WNW,291,5.1,73.2,45,0.00,,---,0.00,VWS V14.01,2013-04-03 08:45:00,
2013-04-03 04:50:00,32.4,13.4,30.06,North,353,6.5,73.2,45,0.00,,---,0.00,VWS V14.01,2013-04-03 08:50:00,
2013-04-03 04:55:00,32.0,13.0,30.06,NW,305,8.1,73.2,45,0.00,,---,0.00,VWS V14.01,2013-04-03 08:55:00,
2013-04-03 05:00:00,33.1,14.1,30.07,North,11,6.0,73.2,45,0.00,,---,0.00,VWS V14.01,2013-04-03 09:00:00,
2013-04-03 05:05:00,32.7,13.8,30.07,WSW,243,2.9,73.2,45,0.00,,---,0.00,VWS V14.01,2013-04-03 09:05:00,
2013-04-03 05:09:00,32.2,13.8,30.09,NW,307,3.3,73.2,46,0.00,,---,0.00,VWS V14.01,2013-04-03 09:09:00,
2013-04-03 05:10:00,32.1,13.1,30.07,NNW,345,8.9,73.2,45,0.00,,---,0.00,VWS V14.01,2013-04-03 09:10:00,
2013-04-03 05:11:00,31.9,13.5,30.09,NW,322,5.0,73.2,46,0.00,,---,0.00,VWS V14.01,2013-04-03 09:11:00,
2013-04-03 05:12:00,32.3,13.9,30.09,WSW,253,2.0,73.2,46,0.00,,---,0.00,VWS V14.01,2013-04-03 09:12:00,
2013-04-03 05:15:00,32.1,13.3,30.07,North,352,2.8,73.2,45,0.00,,---,0.00,VWS V14.01,2013-04-03 09:15:00,
2013-04-03 05:20:00,32.0,13.3,30.07,WNW,298,6.1,73.2,45,0.00,,---,0.00,VWS V14.01,2013-04-03 09:20:00,
2013-04-03 05:25:00,32.4,13.6,30.08,NNW,345,5.8,73.2,45,0.00,,---,0.00,VWS V14.01,2013-04-03 09:25:00,
2013-04-03 05:30:00,32.1,13.6,30.08,NNW,345,5.7,73.2,46,0.00,,---,0.00,VWS V14.01,2013-04-03 09:30:00,
2013-04-03 05:35:00,32.1,13.7,30.08,NNW,332,4.5,73.2,46,0.00,,---,0.00,VWS V14.01,2013-04-03 09:35:00,
2013-04-03 05:40:00,32.1,13.7,30.08,NW,321,9.2,73.2,46,0.00,,---,0.00,VWS V14.01,2013-04-03 09:40:00,
2013-04-03 05:45:00,32.1,14.0,30.08,NNW,329,5.6,73.2,47,0.00,,---,0.00,VWS V14.01,2013-04-03 09:45:00,
2013-04-03 05:46:00,31.6,14.4,30.10,NNW,329,4.5,73.2,48,0.00,,---,0.00,VWS V14.01,2013-04-03 09:46:00,
2013-04-03 05:47:00,31.5,14.4,30.10,NNE,24,2.2,73.2,49,0.00,,---,0.00,VWS V14.01,2013-04-03 09:47:00,
2013-04-03 05:50:00,31.9,13.9,30.09,NNW,328,6.7,73.2,47,0.00,,---,0.00,VWS V14.01,2013-04-03 09:50:00,
2013-04-03 05:55:00,31.9,14.0,30.09,NNW,328,6.3,73.2,47,0.00,,---,0.00,VWS V14.01,2013-04-03 09:55:00,
2013-04-03 06:00:00,31.7,13.6,30.09,NNW,336,5.3,73.2,47,0.00,,---,0.00,VWS V14.01,2013-04-03 10:00:00,
2013-04-03 06:05:00,32.1,13.7,30.09,West,276,4.2,73.2,46,0.00,,---,0.00,VWS V14.01,2013-04-03 10:05:00,
2013-04-03 06:10:00,32.4,14.0,30.09,South,190,2.7,73.2,46,0.00,,---,0.00,VWS V14.01,2013-04-03 10:10:00,
2013-04-03 06:15:00,32.2,14.0,30.09,NNW,346,5.7,73.2,46,0.00,,---,0.00,VWS V14.01,2013-04-03 10:15:00,
2013-04-03 06:20:00,31.9,14.1,30.09,NNW,340,6.3,73.2,47,0.00,,---,0.00,VWS V14.01,2013-04-03 10:20:00,
2013-04-03 06:25:00,31.6,14.1,30.09,WSW,253,7.1,73.2,48,0.00,,---,0.00,VWS V14.01,2013-04-03 10:25:00,
2013-04-03 06:30:00,31.1,13.9,30.09,NW,314,6.5,73.2,48,0.00,,---,0.00,VWS V14.01,2013-04-03 10:30:00,
2013-04-03 06:35:00,31.1,14.1,30.10,WNW,300,6.1,73.2,49,0.00,,---,0.00,VWS V14.01,2013-04-03 10:35:00,
2013-04-03 06:40:00,31.7,14.6,30.10,NW,315,8.0,73.2,49,0.00,,---,0.00,VWS V14.01,2013-04-03 10:40:00,
2013-04-03 06:45:00,31.6,14.5,30.10,North,359,3.4,73.2,49,0.00,,---,0.00,VWS V14.01,2013-04-03 10:45:00,
2013-04-03 06:50:00,31.5,14.4,30.10,West,277,2.9,73.2,49,0.00,,---,0.00,VWS V14.01,2013-04-03 10:50:00,
2013-04-03 06:55:00,31.3,14.4,30.10,NW,308,3.2,73.2,49,0.00,,---,0.00,VWS V14.01,2013-04-03 10:55:00,
2013-04-03 07:00:00,31.7,14.7,30.10,ENE,69,6.4,73.2,49,0.00,,---,0.00,VWS V14.01,2013-04-03 11:00:00,
2013-04-03 07:05:00,31.5,14.5,30.11,North,356,4.6,73.2,49,0.00,,---,0.00,VWS V14.01,2013-04-03 11:05:00,
2013-04-03 07:10:00,32.1,15.1,30.11,WNW,300,5.3,73.2,49,0.00,,---,0.00,VWS V14.01,2013-04-03 11:10:00,
2013-04-03 07:15:00,32.1,15.1,30.11,NW,311,4.5,73.2,49,0.00,,---,0.00,VWS V14.01,2013-04-03 11:15:00,
2013-04-03 07:20:00,31.9,14.7,30.11,WNW,284,6.3,73.2,49,0.00,,---,0.00,VWS V14.01,2013-04-03 11:20:00,
2013-04-03 07:25:00,32.3,15.1,30.12,WNW,302,3.9,73.2,49,0.00,,---,0.00,VWS V14.01,2013-04-03 11:25:00,
2013-04-03 07:30:00,32.3,15.1,30.12,WNW,287,6.9,73.2,48,0.00,,---,0.00,VWS V14.01,2013-04-03 11:30:00,
2013-04-03 07:35:00,32.6,15.2,30.12,West,281,5.3,73.2,48,0.00,,---,0.00,VWS V14.01,2013-04-03 11:35:00,
2013-04-03 07:40:00,32.6,14.9,30.12,WNW,290,4.6,73.2,48,0.00,,---,0.00,VWS V14.01,2013-04-03 11:40:00,
2013-04-03 07:45:00,33.3,15.4,30.12,WNW,291,5.7,73.2,47,0.00,,---,0.00,VWS V14.01,2013-04-03 11:45:00,
2013-04-03 07:50:00,33.5,15.4,30.12,West,269,7.6,73.2,47,0.00,,---,0.00,VWS V14.01,2013-04-03 11:50:00,
2013-04-03 07:55:00,33.8,15.4,30.13,WNW,285,6.2,73.2,46,0.00,,---,0.00,VWS V14.01,2013-04-03 11:55:00,
2013-04-03 08:00:00,33.9,15.0,30.13,NW,304,6.2,73.2,45,0.00,,---,0.00,VWS V14.01,2013-04-03 12:00:00,
2013-04-03 08:05:00,34.3,15.1,30.13,WNW,288,4.0,73.2,45,0.00,,---,0.00,VWS V14.01,2013-04-03 12:05:00,
2013-04-03 08:10:00,34.3,15.1,30.13,WNW,285,9.8,73.2,45,0.00,,---,0.00,VWS V14.01,2013-04-03 12:10:00,
2013-04-03 08:15:00,34.4,14.9,30.13,WSW,239,10.7,73.2,44,0.00,,---,0.00,VWS V14.01,2013-04-03 12:15:00,
2013-04-03 08:20:00,34.0,14.3,30.13,WNW,297,10.3,73.2,44,0.00,,---,0.00,VWS V14.01,2013-04-03 12:20:00,
2013-04-03 08:25:00,35.3,15.9,30.13,West,270,6.5,73.2,45,0.00,,---,0.00,VWS V14.01,2013-04-03 12:25:00,
2013-04-03 08:30:00,34.9,15.2,30.13,West,278,12.1,73.2,44,0.00,,---,0.00,VWS V14.01,2013-04-03 12:30:00,
2013-04-03 08:35:00,35.4,15.5,30.12,West,277,10.8,73.2,44,0.00,,---,0.00,VWS V14.01,2013-04-03 12:35:00,
2013-04-03 08:40:00,34.9,15.3,30.13,NW,308,6.6,73.2,44,0.00,,---,0.00,VWS V14.01,2013-04-03 12:40:00,
2013-04-03 08:45:00,35.1,15.2,30.12,WNW,302,8.7,73.2,44,0.00,,---,0.00,VWS V14.01,2013-04-03 12:45:00,
2013-04-03 08:50:00,35.8,16.0,30.12,West,274,6.0,73.2,44,0.00,,---,0.00,VWS V14.01,2013-04-03 12:50:00,
2013-04-03 08:55:00,35.1,15.1,30.11,NW,316,4.8,73.2,43,0.00,,---,0.00,VWS V14.01,2013-04-03 12:55:00,
2013-04-03 09:00:00,35.6,15.9,30.11,WNW,294,8.2,73.2,44,0.00,,---,0.00,VWS V14.01,2013-04-03 13:00:00,
2013-04-03 09:05:00,35.5,15.2,30.11,WNW,295,0.0,73.2,43,0.00,,---,0.00,VWS V14.01,2013-04-03 13:05:00,
2013-04-03 09:10:00,35.2,14.6,30.11,WNW,295,0.0,73.2,42,0.00,,---,0.00,VWS V14.01,2013-04-03 13:10:00,
2013-04-03 09:15:00,35.8,15.1,30.10,NW,308,13.9,73.2,42,0.00,,---,0.00,VWS V14.01,2013-04-03 13:15:00,
2013-04-03 09:20:00,35.3,15.1,30.10,West,270,21.2,73.2,43,0.00,,---,0.00,VWS V14.01,2013-04-03 13:20:00,
2013-04-03 09:25:00,35.4,14.4,30.10,NNW,328,10.3,73.2,42,0.00,,---,0.00,VWS V14.01,2013-04-03 13:25:00,
2013-04-03 09:30:00,35.6,14.7,30.10,NW,308,16.6,73.2,42,0.00,,---,0.00,VWS V14.01,2013-04-03 13:30:00,
2013-04-03 09:35:00,36.1,15.5,30.09,NW,325,11.6,73.2,42,0.00,,---,0.00,VWS V14.01,2013-04-03 13:35:00,
2013-04-03 09:40:00,36.2,15.2,30.09,NW,321,8.0,73.2,42,0.00,,---,0.00,VWS V14.01,2013-04-03 13:40:00,
2013-04-03 09:45:00,36.3,14.2,30.09,SW,235,15.8,73.2,40,0.00,,---,0.00,VWS V14.01,2013-04-03 13:45:00,
2013-04-03 09:50:00,35.7,14.1,30.09,WNW,301,14.1,73.2,41,0.00,,---,0.00,VWS V14.01,2013-04-03 13:50:00,
2013-04-03 09:55:00,35.8,14.9,30.09,NW,309,13.5,73.2,42,0.00,,---,0.00,VWS V14.01,2013-04-03 13:55:00,
2013-04-03 09:59:00,36.2,14.4,30.09,WNW,298,9.6,73.2,40,0.00,,---,0.00,VWS V14.01,2013-04-03 13:59:00,
2013-04-03 10:04:00,35.7,13.9,30.10,NW,305,8.6,73.2,40,0.00,,---,0.00,VWS V14.01,2013-04-03 14:04:00,
2013-04-03 10:09:00,36.4,15.4,30.09,WNW,302,4.8,73.2,42,0.00,,---,0.00,VWS V14.01,2013-04-03 14:09:00,
2013-04-03 10:14:00,36.0,14.3,30.09,WNW,302,15.0,73.2,40,0.00,,---,0.00,VWS V14.01,2013-04-03 14:14:00,
2013-04-03 10:19:00,36.4,15.7,30.10,WSW,255,7.9,73.2,42,0.00,,---,0.00,VWS V14.01,2013-04-03 14:19:00,
2013-04-03 10:24:00,36.1,15.1,30.10,NW,307,9.6,73.2,42,0.00,,---,0.00,VWS V14.01,2013-04-03 14:24:00,
2013-04-03 10:29:00,37.1,16.1,30.10,WSW,240,5.2,73.2,42,0.00,,---,0.00,VWS V14.01,2013-04-03 14:29:00,
2013-04-03 10:34:00,37.0,15.8,30.10,NNW,329,17.0,73.2,42,0.00,,---,0.00,VWS V14.01,2013-04-03 14:34:00,
2013-04-03 10:39:00,37.3,15.6,30.10,WNW,290,14.7,73.2,41,0.00,,---,0.00,VWS V14.01,2013-04-03 14:39:00,
2013-04-03 10:44:00,37.2,15.9,30.10,NW,321,12.8,73.2,41,0.00,,---,0.00,VWS V14.01,2013-04-03 14:44:00,
2013-04-03 10:49:00,37.5,15.1,30.10,WNW,297,14.4,73.2,40,0.00,,---,0.00,VWS V14.01,2013-04-03 14:49:00,
2013-04-03 10:54:00,36.8,13.6,30.10,West,280,15.8,73.2,38,0.00,,---,0.00,VWS V14.01,2013-04-03 14:54:00,
2013-04-03 10:59:00,37.6,14.9,30.11,WNW,301,15.2,73.2,39,0.00,,---,0.00,VWS V14.01,2013-04-03 14:59:00,
2013-04-03 11:04:00,37.1,15.5,30.11,WNW,288,14.3,73.2,41,0.00,,---,0.00,VWS V14.01,2013-04-03 15:04:00,
2013-04-03 11:09:00,37.7,15.9,30.10,West,276,13.0,73.2,41,0.00,,---,0.00,VWS V14.01,2013-04-03 15:09:00,
2013-04-03 11:14:00,38.3,15.2,30.10,WNW,287,6.5,73.2,38,0.00,,---,0.00,VWS V14.01,2013-04-03 15:14:00,
2013-04-03 11:19:00,37.9,14.8,30.10,WSW,243,6.5,73.2,38,0.00,,---,0.00,VWS V14.01,2013-04-03 15:19:00,
2013-04-03 11:24:00,38.0,14.5,30.10,West,267,12.8,73.2,38,0.00,,---,0.00,VWS V14.01,2013-04-03 15:24:00,
2013-04-03 11:29:00,38.2,14.7,30.11,SE,143,8.0,73.2,38,0.00,,---,0.00,VWS V14.01,2013-04-03 15:29:00,
2013-04-03 11:34:00,38.2,14.2,30.11,WNW,290,4.7,73.2,37,0.00,,---,0.00,VWS V14.01,2013-04-03 15:34:00,
2013-04-03 11:39:00,38.2,14.4,30.11,WNW,283,12.2,73.2,37,0.00,,---,0.00,VWS V14.01,2013-04-03 15:39:00,
2013-04-03 11:44:00,38.1,14.1,30.11,WNW,283,1.6,73.2,37,0.00,,---,0.00,VWS V14.01,2013-04-03 15:44:00,
2013-04-03 11:49:00,38.5,13.9,30.11,WNW,298,9.4,73.2,36,0.00,,---,0.00,VWS V14.01,2013-04-03 15:49:00,
2013-04-03 11:54:00,38.2,14.1,30.11,NW,312,6.0,73.2,37,0.00,,---,0.00,VWS V14.01,2013-04-03 15:54:00,
2013-04-03 11:59:00,38.8,15.7,30.11,WNW,295,9.1,73.2,38,0.00,,---,0.00,VWS V14.01,2013-04-03 15:59:00,
2013-04-03 12:04:00,38.4,15.0,30.11,WNW,290,9.1,73.2,38,0.00,,---,0.00,VWS V14.01,2013-04-03 16:04:00,
2013-04-03 12:09:00,38.5,13.8,30.11,WNW,284,12.7,73.2,36,0.00,,---,0.00,VWS V14.01,2013-04-03 16:09:00,
2013-04-03 12:14:00,39.5,15.0,30.10,NW,321,12.9,73.2,36,0.00,,---,0.00,VWS V14.01,2013-04-03 16:14:00,
2013-04-03 12:19:00,39.0,14.4,30.10,NW,304,11.1,73.2,36,0.00,,---,0.00,VWS V14.01,2013-04-03 16:19:00,
2013-04-03 12:24:00,38.5,13.6,30.10,WSW,240,14.2,73.2,36,0.00,,---,0.00,VWS V14.01,2013-04-03 16:24:00,
2013-04-03 12:29:00,38.9,14.2,30.10,West,262,8.1,73.2,36,0.00,,---,0.00,VWS V14.01,2013-04-03 16:29:00,
2013-04-03 12:34:00,39.0,13.5,30.10,WNW,298,18.1,73.2,35,0.00,,---,0.00,VWS V14.01,2013-04-03 16:34:00,
2013-04-03 12:40:00,39.5,15.5,30.09,WSW,249,11.8,73.2,37,0.00,,---,0.00,VWS V14.01,2013-04-03 16:40:00,
2013-04-03 12:45:00,39.5,14.2,30.09,West,270,15.3,73.2,35,0.00,,---,0.00,VWS V14.01,2013-04-03 16:45:00,
2013-04-03 12:50:00,39.5,13.7,30.09,WNW,284,9.8,73.2,34,0.00,,---,0.00,VWS V14.01,2013-04-03 16:50:00,
2013-04-03 12:55:00,39.9,13.9,30.09,WNW,285,10.9,73.2,34,0.00,,---,0.00,VWS V14.01,2013-04-03 16:55:00,
2013-04-03 13:00:00,39.7,14.1,30.09,WSW,250,11.8,73.2,35,0.00,,---,0.00,VWS V14.01,2013-04-03 17:00:00,
2013-04-03 13:05:00,40.3,14.2,30.09,West,274,0.3,73.2,34,0.00,,---,0.00,VWS V14.01,2013-04-03 17:05:00,
2013-04-03 13:10:00,40.0,14.2,30.09,WSW,249,16.3,73.2,34,0.00,,---,0.00,VWS V14.01,2013-04-03 17:10:00,
2013-04-03 13:15:00,40.2,13.9,30.09,West,269,4.7,73.2,34,0.00,,---,0.00,VWS V14.01,2013-04-03 17:15:00,
2013-04-03 13:20:00,41.3,15.7,30.08,SW,215,17.7,73.2,35,0.00,,---,0.00,VWS V14.01,2013-04-03 17:20:00,
2013-04-03 13:24:00,40.5,14.0,30.08,WNW,288,5.8,73.2,34,0.00,,---,0.00,VWS V14.01,2013-04-03 17:24:00,
2013-04-03 13:29:00,40.3,14.6,30.08,WNW,290,14.5,73.2,35,0.00,,---,0.00,VWS V14.01,2013-04-03 17:29:00,
2013-04-03 13:35:00,40.9,14.3,30.08,West,274,15.0,73.2,33,0.00,,---,0.00,VWS V14.01,2013-04-03 17:35:00,
2013-04-03 13:40:00,40.8,14.7,30.08,WNW,284,11.1,73.2,34,0.00,,---,0.00,VWS V14.01,2013-04-03 17:40:00,
2013-04-03 13:45:00,41.4,15.3,30.08,WNW,284,16.8,73.2,34,0.00,,---,0.00,VWS V14.01,2013-04-03 17:45:00,
2013-04-03 13:50:00,41.0,13.9,30.08,WNW,298,10.5,73.2,33,0.00,,---,0.00,VWS V14.01,2013-04-03 17:50:00,
2013-04-03 13:55:00,41.7,14.0,30.07,West,260,14.7,73.2,32,0.00,,---,0.00,VWS V14.01,2013-04-03 17:55:00,
2013-04-03 14:00:00,41.0,13.0,30.08,WNW,294,9.0,73.2,31,0.00,,---,0.00,VWS V14.01,2013-04-03 18:00:00,
2013-04-03 14:05:00,41.8,15.8,30.08,NW,309,12.3,73.2,34,0.00,,---,0.00,VWS V14.01,2013-04-03 18:05:00,
2013-04-03 14:10:00,41.5,15.3,30.07,NW,319,7.3,73.2,34,0.00,,---,0.00,VWS V14.01,2013-04-03 18:10:00,
2013-04-03 14:15:00,41.1,14.6,30.06,WNW,290,17.6,73.2,34,0.00,,---,0.00,VWS V14.01,2013-04-03 18:15:00,
2013-04-03 14:20:00,41.2,13.2,30.07,West,277,12.6,73.2,32,0.00,,---,0.00,VWS V14.01,2013-04-03 18:20:00,
2013-04-03 14:25:00,41.4,14.1,30.06,West,280,7.7,73.2,32,0.00,,---,0.00,VWS V14.01,2013-04-03 18:25:00,
2013-04-03 14:30:00,42.3,15.1,30.06,West,269,15.8,73.2,33,0.00,,---,0.00,VWS V14.01,2013-04-03 18:30:00,
2013-04-03 14:35:00,41.9,13.8,30.06,West,269,18.4,73.2,31,0.00,,---,0.00,VWS V14.01,2013-04-03 18:35:00,
2013-04-03 14:40:00,41.4,16.2,30.06,West,271,10.1,73.2,36,0.00,,---,0.00,VWS V14.01,2013-04-03 18:40:00,
2013-04-03 14:45:00,41.3,14.0,30.06,WNW,302,11.4,73.2,32,0.00,,---,0.00,VWS V14.01,2013-04-03 18:45:00,
2013-04-03 14:50:00,42.5,13.9,30.06,NW,316,12.2,73.2,31,0.00,,---,0.00,VWS V14.01,2013-04-03 18:50:00,
2013-04-03 14:55:00,42.7,15.3,30.06,NW,319,15.0,73.2,33,0.00,,---,0.00,VWS V14.01,2013-04-03 18:55:00,
2013-04-03 15:00:00,42.3,13.8,30.06,WNW,290,18.8,73.2,31,0.00,,---,0.00,VWS V14.01,2013-04-03 19:00:00,
2013-04-03 15:05:00,41.9,14.6,30.06,West,280,19.5,73.2,32,0.00,,---,0.00,VWS V14.01,2013-04-03 19:05:00,
2013-04-03 15:10:00,42.8,14.8,30.06,WNW,301,17.0,73.2,32,0.00,,---,0.00,VWS V14.01,2013-04-03 19:10:00,
2013-04-03 15:15:00,42.3,14.2,30.06,WSW,257,8.1,73.2,32,0.00,,---,0.00,VWS V14.01,2013-04-03 19:15:00,
2013-04-03 15:20:00,42.6,13.9,30.06,WNW,301,13.7,73.2,31,0.00,,---,0.00,VWS V14.01,2013-04-03 19:20:00,
2013-04-03 15:25:00,43.3,14.4,30.06,WNW,300,13.4,73.2,31,0.00,,---,0.00,VWS V14.01,2013-04-03 19:25:00,
2013-04-03 15:30:00,42.7,13.1,30.06,WNW,287,13.2,73.2,30,0.00,,---,0.00,VWS V14.01,2013-04-03 19:30:00,
2013-04-03 15:35:00,42.9,13.0,30.06,NW,314,10.9,73.2,29,0.00,,---,0.00,VWS V14.01,2013-04-03 19:35:00,
2013-04-03 15:40:00,42.1,12.7,30.06,WNW,300,10.6,73.2,30,0.00,,---,0.00,VWS V14.01,2013-04-03 19:40:00,
2013-04-03 15:45:00,42.5,13.6,30.06,WNW,301,12.7,73.2,30,0.00,,---,0.00,VWS V14.01,2013-04-03 19:45:00,
2013-04-03 15:50:00,42.8,12.8,30.06,West,280,10.1,73.2,29,0.00,,---,0.00,VWS V14.01,2013-04-03 19:50:00,
2013-04-03 15:55:00,42.9,12.9,30.07,West,273,17.0,73.2,29,0.00,,---,0.00,VWS V14.01,2013-04-03 19:55:00,
2013-04-03 16:00:00,43.2,13.3,30.07,West,267,13.2,73.2,29,0.00,,---,0.00,VWS V14.01,2013-04-03 20:00:00,
2013-04-03 16:05:00,43.4,13.8,30.07,West,264,10.9,73.2,30,0.00,,---,0.00,VWS V14.01,2013-04-03 20:05:00,
2013-04-03 16:10:00,42.4,12.3,30.06,WNW,291,12.7,73.2,29,0.00,,---,0.00,VWS V14.01,2013-04-03 20:10:00,
2013-04-03 16:15:00,42.3,12.2,30.06,WNW,295,13.4,73.2,29,0.00,,---,0.00,VWS V14.01,2013-04-03 20:15:00,
2013-04-03 16:20:00,42.3,12.4,30.07,West,281,8.9,73.2,29,0.00,,---,0.00,VWS V14.01,2013-04-03 20:20:00,
2013-04-03 16:25:00,42.5,12.3,30.06,West,271,17.8,73.2,29,0.00,,---,0.00,VWS V14.01,2013-04-03 20:25:00,
2013-04-03 16:30:00,42.4,12.6,30.06,West,263,20.6,73.2,29,0.00,,---,0.00,VWS V14.01,2013-04-03 20:30:00,
2013-04-03 16:35:00,43.0,12.3,30.07,West,266,14.8,73.2,28,0.00,,---,0.00,VWS V14.01,2013-04-03 20:35:00,
2013-04-03 16:40:00,42.5,11.9,30.07,NW,309,19.8,73.2,28,0.00,,---,0.00,VWS V14.01,2013-04-03 20:40:00,
2013-04-03 16:45:00,43.1,12.9,30.07,NW,321,10.7,73.2,29,0.00,,---,0.00,VWS V14.01,2013-04-03 20:45:00,
2013-04-03 16:50:00,43.6,13.2,30.07,WSW,256,13.2,73.2,29,0.00,,---,0.00,VWS V14.01,2013-04-03 20:50:00,
2013-04-03 16:55:00,43.2,12.9,30.07,WNW,292,10.6,73.2,29,0.00,,---,0.00,VWS V14.01,2013-04-03 20:55:00,
2013-04-03 17:00:00,43.5,11.9,30.07,West,259,21.2,73.2,27,0.00,,---,0.00,VWS V14.01,2013-04-03 21:00:00,
2013-04-03 17:05:00,43.3,12.1,30.07,WNW,302,11.9,73.2,28,0.00,,---,0.00,VWS V14.01,2013-04-03 21:05:00,
2013-04-03 17:10:00,43.1,11.1,30.08,WNW,288,17.1,73.2,27,0.00,,---,0.00,VWS V14.01,2013-04-03 21:10:00,
2013-04-03 17:15:00,42.8,12.1,30.08,WSW,255,18.8,73.2,28,0.00,,---,0.00,VWS V14.01,2013-04-03 21:15:00,
2013-04-03 17:20:00,43.3,12.7,30.08,WNW,294,19.2,73.2,28,0.00,,---,0.00,VWS V14.01,2013-04-03 21:20:00,
2013-04-03 17:25:00,43.0,12.5,30.08,North,359,8.2,73.2,28,0.00,,---,0.00,VWS V14.01,2013-04-03 21:25:00,
2013-04-03 17:30:00,42.9,11.2,30.08,North,359,1.9,73.2,27,0.00,,---,0.00,VWS V14.01,2013-04-03 21:30:00,
2013-04-03 17:35:00,43.7,12.8,30.08,South,180,15.2,73.2,28,0.00,,---,0.00,VWS V14.01,2013-04-03 21:35:00,
2013-04-03 17:40:00,43.0,12.1,30.08,NW,309,14.1,73.2,28,0.00,,---,0.00,VWS V14.01,2013-04-03 21:40:00,
2013-04-03 17:45:00,42.9,11.1,30.09,WNW,291,12.6,73.2,27,0.00,,---,0.00,VWS V14.01,2013-04-03 21:45:00,
2013-04-03 17:50:00,42.8,11.2,30.09,WNW,294,16.8,73.2,27,0.00,,---,0.00,VWS V14.01,2013-04-03 21:50:00,
2013-04-03 17:55:00,42.9,11.8,30.10,NW,311,8.0,73.2,28,0.00,,---,0.00,VWS V14.01,2013-04-03 21:55:00,
2013-04-03 18:00:00,43.8,12.4,30.10,WNW,288,9.8,73.2,28,0.00,,---,0.00,VWS V14.01,2013-04-03 22:00:00,
2013-04-03 18:05:00,42.8,10.9,30.10,WNW,285,23.2,73.2,27,0.00,,---,0.00,VWS V14.01,2013-04-03 22:05:00,
2013-04-03 18:10:00,43.0,10.9,30.11,WNW,295,17.6,73.2,26,0.00,,---,0.00,VWS V14.01,2013-04-03 22:10:00,
2013-04-03 18:15:00,43.4,10.9,30.12,West,274,11.4,73.2,26,0.00,,---,0.00,VWS V14.01,2013-04-03 22:15:00,
2013-04-03 18:20:00,42.9,10.8,30.12,West,266,10.6,73.2,26,0.00,,---,0.00,VWS V14.01,2013-04-03 22:20:00,
2013-04-03 18:25:00,42.3,10.4,30.12,West,270,16.0,73.2,27,0.00,,---,0.00,VWS V14.01,2013-04-03 22:25:00,
2013-04-03 18:30:00,43.0,11.1,30.12,WNW,301,9.3,73.2,27,0.00,,---,0.00,VWS V14.01,2013-04-03 22:30:00,
2013-04-03 18:35:00,42.5,10.2,30.12,WNW,294,16.2,73.2,26,0.00,,---,0.00,VWS V14.01,2013-04-03 22:35:00,
2013-04-03 18:40:00,42.8,10.9,30.13,WNW,294,15.4,73.2,27,0.00,,---,0.00,VWS V14.01,2013-04-03 22:40:00,
2013-04-03 18:45:00,42.0,10.4,30.13,West,277,12.5,73.2,27,0.00,,---,0.00,VWS V14.01,2013-04-03 22:45:00,
2013-04-03 18:50:00,42.7,11.8,30.13,WNW,284,8.3,73.2,28,0.00,,---,0.00,VWS V14.01,2013-04-03 22:50:00,
2013-04-03 18:55:00,42.2,10.8,30.14,NW,311,15.0,73.2,27,0.00,,---,0.00,VWS V14.01,2013-04-03 22:55:00,
2013-04-03 19:00:00,42.5,11.7,30.14,NW,307,8.5,73.2,28,0.00,,---,0.00,VWS V14.01,2013-04-03 23:00:00,
2013-04-03 19:05:00,42.5,12.1,30.14,NW,322,10.7,73.2,28,0.00,,---,0.00,VWS V14.01,2013-04-03 23:05:00,
2013-04-03 19:10:00,42.1,12.1,30.14,West,280,8.3,73.2,29,0.00,,---,0.00,VWS V14.01,2013-04-03 23:10:00,
2013-04-03 19:15:00,42.4,11.5,30.15,WNW,302,9.8,73.2,28,0.00,,---,0.00,VWS V14.01,2013-04-03 23:15:00,
2013-04-03 19:20:00,41.2,10.3,30.15,NW,309,16.5,73.2,28,0.00,,---,0.00,VWS V14.01,2013-04-03 23:20:00,
2013-04-03 19:25:00,42.1,11.5,30.16,NW,316,22.7,73.2,28,0.00,,---,0.00,VWS V14.01,2013-04-03 23:25:00,
2013-04-03 19:30:00,41.4,10.4,30.16,NW,319,14.8,73.2,28,0.00,,---,0.00,VWS V14.01,2013-04-03 23:30:00,
2013-04-03 19:35:00,41.7,10.6,30.16,West,274,11.4,73.2,28,0.00,,---,0.00,VWS V14.01,2013-04-03 23:35:00,
2013-04-03 19:40:00,41.4,10.4,30.16,West,274,14.4,73.2,28,0.00,,---,0.00,VWS V14.01,2013-04-03 23:40:00,
2013-04-03 19:45:00,41.8,11.2,30.16,WNW,300,12.2,73.2,28,0.00,,---,0.00,VWS V14.01,2013-04-03 23:45:00,
2013-04-03 19:50:00,41.6,11.5,30.17,NNW,329,9.2,73.2,29,0.00,,---,0.00,VWS V14.01,2013-04-03 23:50:00,
2013-04-03 19:55:00,41.1,10.2,30.17,NW,307,9.1,73.2,28,0.00,,---,0.00,VWS V14.01,2013-04-03 23:55:00,
2013-04-03 20:00:00,41.0,10.3,30.17,West,280,14.9,73.2,28,0.00,,---,0.00,VWS V14.01,2013-04-04 00:00:00,
2013-04-03 20:05:00,41.0,10.6,30.17,WNW,300,13.5,73.2,28,0.00,,---,0.00,VWS V14.01,2013-04-04 00:05:00,
2013-04-03 20:10:00,40.8,10.7,30.17,NW,305,12.2,73.2,29,0.00,,---,0.00,VWS V14.01,2013-04-04 00:10:00,
2013-04-03 20:15:00,40.4,10.3,30.17,NNW,330,10.6,73.2,28,0.00,,---,0.00,VWS V14.01,2013-04-04 00:15:00,
2013-04-03 20:20:00,40.7,10.3,30.18,WNW,290,8.9,73.2,28,0.00,,---,0.00,VWS V14.01,2013-04-04 00:20:00,
2013-04-03 20:25:00,40.0,9.9,30.18,NW,309,8.2,73.2,28,0.00,,---,0.00,VWS V14.01,2013-04-04 00:25:00,
2013-04-03 20:30:00,40.1,10.3,30.18,WNW,297,10.4,73.2,29,0.00,,---,0.00,VWS V14.01,2013-04-04 00:30:00,
2013-04-03 20:35:00,40.3,10.4,30.18,NW,314,12.1,73.2,29,0.00,,---,0.00,VWS V14.01,2013-04-04 00:35:00,
2013-04-03 20:40:00,40.1,10.6,30.19,WNW,294,8.0,73.2,29,0.00,,---,0.00,VWS V14.01,2013-04-04 00:40:00,
2013-04-03 20:45:00,39.9,9.9,30.19,WNW,297,11.9,73.2,28,0.00,,---,0.00,VWS V14.01,2013-04-04 00:45:00,
2013-04-03 20:50:00,39.8,10.0,30.20,WNW,294,9.9,73.2,29,0.00,,---,0.00,VWS V14.01,2013-04-04 00:50:00,
2013-04-03 20:55:00,39.1,9.9,30.19,WNW,301,13.9,73.2,29,0.00,,---,0.00,VWS V14.01,2013-04-04 00:55:00,
2013-04-03 21:00:00,39.4,9.9,30.20,NW,314,9.4,73.2,29,0.00,,---,0.00,VWS V14.01,2013-04-04 01:00:00,
2013-04-03 21:05:00,39.5,10.6,30.20,WNW,302,9.8,73.2,30,0.00,,---,0.00,VWS V14.01,2013-04-04 01:05:00,
2013-04-03 21:10:00,39.1,10.3,30.20,NW,308,9.5,73.2,30,0.00,,---,0.00,VWS V14.01,2013-04-04 01:10:00,
2013-04-03 21:15:00,39.1,10.2,30.20,WNW,301,12.2,73.2,30,0.00,,---,0.00,VWS V14.01,2013-04-04 01:15:00,
2013-04-03 21:20:00,39.0,10.4,30.20,NW,308,11.1,73.2,30,0.00,,---,0.00,VWS V14.01,2013-04-04 01:20:00,
2013-04-03 21:25:00,38.5,10.4,30.20,NNW,330,7.4,73.2,31,0.00,,---,0.00,VWS V14.01,2013-04-04 01:25:00,
2013-04-03 21:30:00,38.5,10.2,30.21,NW,315,7.9,73.2,31,0.00,,---,0.00,VWS V14.01,2013-04-04 01:30:00,
2013-04-03 21:35:00,38.5,10.9,30.21,NNW,330,11.3,73.2,32,0.00,,---,0.00,VWS V14.01,2013-04-04 01:35:00,
2013-04-03 21:40:00,38.3,11.0,30.21,NW,326,13.3,73.2,32,0.00,,---,0.00,VWS V14.01,2013-04-04 01:40:00,
2013-04-03 21:45:00,38.6,11.0,30.21,NNW,342,7.4,73.2,32,0.00,,---,0.00,VWS V14.01,2013-04-04 01:45:00,
2013-04-03 21:50:00,38.3,10.7,30.22,NNW,338,9.3,73.2,32,0.00,,---,0.00,VWS V14.01,2013-04-04 01:50:00,
2013-04-03 21:55:00,37.7,10.6,30.22,NW,305,8.3,73.2,32,0.00,,---,0.00,VWS V14.01,2013-04-04 01:55:00,
2013-04-03 22:00:00,38.1,11.2,30.21,NW,319,6.5,73.2,32,0.00,,---,0.00,VWS V14.01,2013-04-04 02:00:00,
2013-04-03 22:05:00,37.9,11.3,30.21,NW,308,8.1,73.2,33,0.00,,---,0.00,VWS V14.01,2013-04-04 02:05:00,
2013-04-03 22:10:00,37.5,11.0,30.22,NW,321,12.2,73.2,33,0.00,,---,0.00,VWS V14.01,2013-04-04 02:10:00,
2013-04-03 22:15:00,37.6,11.1,30.22,NNW,332,6.3,73.2,33,0.00,,---,0.00,VWS V14.01,2013-04-04 02:15:00,
2013-04-03 22:20:00,37.5,11.6,30.22,NNW,342,4.7,73.2,34,0.00,,---,0.00,VWS V14.01,2013-04-04 02:20:00,
2013-04-03 22:25:00,37.6,11.4,30.23,NW,316,7.3,73.2,34,0.00,,---,0.00,VWS V14.01,2013-04-04 02:25:00,
2013-04-03 22:30:00,37.6,11.4,30.22,NW,316,7.0,73.2,34,0.00,,---,0.00,VWS V14.01,2013-04-04 02:30:00,
2013-04-03 22:35:00,37.5,11.7,30.23,NNW,339,5.2,73.2,34,0.00,,---,0.00,VWS V14.01,2013-04-04 02:35:00,
2013-04-03 22:40:00,37.1,11.2,30.23,NW,318,9.6,73.2,34,0.00,,---,0.00,VWS V14.01,2013-04-04 02:40:00,
2013-04-03 22:45:00,37.0,11.2,30.23,NW,316,10.4,73.2,34,0.00,,---,0.00,VWS V14.01,2013-04-04 02:45:00,
2013-04-03 22:50:00,37.1,11.2,30.23,NW,312,7.7,73.2,34,0.00,,---,0.00,VWS V14.01,2013-04-04 02:50:00,
2013-04-03 22:55:00,37.2,11.4,30.23,NW,309,10.6,73.2,34,0.00,,---,0.00,VWS V14.01,2013-04-04 02:55:00,
2013-04-03 23:00:00,36.5,11.2,30.24,NW,308,13.9,73.2,35,0.00,,---,0.00,VWS V14.01,2013-04-04 03:00:00,
2013-04-03 23:02:00,35.8,11.4,30.23,NW,307,12.2,73.7,36,0.00,,---,0.00,VWS V14.01,2013-04-04 03:02:00,
2013-04-03 23:05:00,37.2,11.8,30.24,NW,319,3.9,73.2,35,0.00,,---,0.00,VWS V14.01,2013-04-04 03:05:00,
2013-04-03 23:10:00,36.8,11.5,30.23,WNW,301,5.2,73.2,35,0.00,,---,0.00,VWS V14.01,2013-04-04 03:10:00,
2013-04-03 23:15:00,36.6,11.7,30.24,NW,315,5.7,73.2,35,0.00,,---,0.00,VWS V14.01,2013-04-04 03:15:00,
2013-04-03 23:20:00,36.9,12.3,30.24,NW,309,6.6,73.2,36,0.00,,---,0.00,VWS V14.01,2013-04-04 03:20:00,
2013-04-03 23:25:00,36.6,11.9,30.23,WNW,292,6.2,73.2,36,0.00,,---,0.00,VWS V14.01,2013-04-04 03:25:00,
2013-04-03 23:30:00,36.4,11.8,30.24,NNW,333,9.4,73.2,36,0.00,,---,0.00,VWS V14.01,2013-04-04 03:30:00,
2013-04-03 23:35:00,35.9,11.7,30.24,NW,322,11.0,73.7,36,0.00,,---,0.00,VWS V14.01,2013-04-04 03:35:00,
2013-04-03 23:40:00,36.2,11.9,30.23,NW,315,13.7,73.7,36,0.00,,---,0.00,VWS V14.01,2013-04-04 03:40:00,
2013-04-03 23:45:00,36.3,11.4,30.24,NW,309,11.8,73.7,35,0.00,,---,0.00,VWS V14.01,2013-04-04 03:45:00,
2013-04-03 23:50:00,35.9,11.1,30.23,WNW,301,16.3,73.7,35,0.00,,---,0.00,VWS V14.01,2013-04-04 03:50:00,
2013-04-03 23:55:00,35.7,11.6,30.23,NW,326,11.7,73.7,36,0.00,,---,0.00,VWS V14.01,2013-04-04 03:55:00,